| time (UTC) | temp C | wind direction | speed KPH | gust KPH | rain 1hr cm | rain 24hr cm | rain mn cm | humidity % | barometer mb |
| 20260509115456 | 22 | 32 | 1.6 | 11.3 | 0.00 | 0.00 | 0.00 | 43 | 1016.5 |
| 20260509113333 | 21 | 92 | 1.6 | 6.4 | 0.00 | 0.00 | 0.00 | 41 | 1016.8 |
| 20260509104959 | 19 | 31 | 3.2 | 9.7 | 0.00 | 0.00 | 0.00 | 45 | 1017.3 |
| 20260509104002 | 20 | 38 | 1.6 | 12.9 | 0.00 | 0.00 | 0.00 | 46 | 1017.5 |
| 20260509101804 | 18 | 15 | 1.6 | 11.3 | 0.00 | 0.00 | 0.00 | 47 | 1017.7 |
| 20260509100754 | 18 | 5 | 1.6 | 6.4 | 0.00 | 0.00 | 0.00 | 48 | 1017.8 |
| 20260509095800 | 18 | 42 | 1.6 | 6.4 | 0.00 | 0.00 | 0.00 | 52 | 1017.8 |
| 20260509094809 | 18 | 61 | 1.6 | 6.4 | 0.00 | 0.00 | 0.00 | 51 | 1017.8 |
| 20260509093753 | 17 | 37 | 1.6 | 6.4 | 0.00 | 0.00 | 0.00 | 50 | 1017.9 |
| 20260509092747 | 17 | 20 | 1.6 | 11.3 | 0.00 | 0.00 | 0.00 | 51 | 1017.9 |
| 20260509091747 | 17 | 30 | 3.2 | 11.3 | 0.00 | 0.00 | 0.00 | 52 | 1018.0 |
| 20260509090745 | 16 | 23 | 1.6 | 11.3 | 0.00 | 0.00 | 0.00 | 54 | 1018.2 |
| 20260509084551 | 16 | 18 | 1.6 | 9.7 | 0.00 | 0.00 | 0.00 | 53 | 1018.3 |
| 20260509083556 | 16 | 11 | 1.6 | 6.4 | 0.00 | 0.00 | 0.00 | 56 | 1018.2 |
| 20260509081443 | 15 | 16 | 1.6 | 9.7 | 0.00 | 0.00 | 0.00 | 56 | 1018.3 |
| 20260509080446 | 15 | 11 | 1.6 | 9.7 | 0.00 | 0.00 | 0.00 | 57 | 1018.3 |
| 20260509075423 | 15 | 55 | 1.6 | 8.0 | 0.00 | 0.00 | 0.00 | 57 | 1018.3 |
| 20260509074435 | 15 | 42 | 1.6 | 4.8 | 0.00 | 0.00 | 0.00 | 58 | 1018.3 |
| 20260509073402 | 14 | 24 | 1.6 | 3.2 | 0.00 | 0.00 | 0.00 | 58 | 1018.3 |
| 20260509072419 | 13 | 44 | 1.6 | 8.0 | 0.00 | 0.00 | 0.00 | 60 | 1018.3 |
| 20260509071414 | 13 | 48 | 1.6 | 8.0 | 0.00 | 0.00 | 0.00 | 60 | 1018.4 |
| 20260509070422 | 13 | 38 | 1.6 | 8.0 | 0.00 | 0.00 | 0.00 | 61 | 1018.4 |
| 20260509063100 | 11 | 23 | 0.0 | 3.2 | 0.00 | 0.00 | 0.00 | 66 | 1018.3 |
| 20260509062029 | 11 | 23 | 0.0 | 3.2 | 0.00 | 0.00 | 0.00 | 66 | 1018.2 |
| 20260509061019 | 11 | 16 | 0.0 | 3.2 | 0.00 | 0.00 | 0.00 | 67 | 1018.3 |
| 20260509055952 | 10 | 16 | 0.0 | 4.8 | 0.00 | 0.00 | 0.00 | 67 | 1018.2 |
| 20260509054923 | 10 | 26 | 0.0 | 1.6 | 0.00 | 0.00 | 0.00 | 68 | 1018.3 |
| 20260509053859 | 10 | 25 | 0.0 | 0.0 | 0.00 | 0.00 | 0.00 | 68 | 1018.3 |
| 20260509052919 | 10 | 25 | 0.0 | 0.0 | 0.00 | 0.00 | 0.00 | 68 | 1018.3 |
| 20260509051848 | 9 | 25 | 0.0 | 0.0 | 0.00 | 0.00 | 0.00 | 68 | 1018.2 |
| 20260509050858 | 9 | 25 | 0.0 | 0.0 | 0.00 | 0.00 | 0.00 | 68 | 1018.2 |
| 20260509045846 | 8 | 25 | 0.0 | 0.0 | 0.00 | 0.00 | 0.00 | 68 | 1018.2 |
| 20260509043651 | 8 | 25 | 0.0 | 0.0 | 0.00 | 0.00 | 0.00 | 67 | 1018.0 |
| 20260509042626 | 8 | 25 | 0.0 | 0.0 | 0.00 | 0.00 | 0.00 | 67 | 1017.9 |
| 20260509041556 | 8 | 25 | 0.0 | 0.0 | 0.00 | 0.00 | 0.00 | 66 | 1017.9 |
| 20260509040523 | 8 | 25 | 0.0 | 0.0 | 0.00 | 0.00 | 0.00 | 66 | 1017.9 |
| 20260509035531 | 8 | 25 | 0.0 | 0.0 | 0.00 | 0.00 | 0.00 | 66 | 1017.8 |
| 20260509034551 | 8 | 25 | 0.0 | 0.0 | 0.00 | 0.00 | 0.00 | 66 | 1017.8 |
| 20260509033534 | 8 | 25 | 0.0 | 0.0 | 0.00 | 0.00 | 0.00 | 65 | 1017.7 |
| 20260509032501 | 9 | 25 | 0.0 | 0.0 | 0.00 | 0.00 | 0.00 | 65 | 1017.6 |
| 20260509030344 | 9 | 25 | 0.0 | 0.0 | 0.00 | 0.00 | 0.00 | 64 | 1017.8 |
| 20260509024239 | 10 | 25 | 0.0 | 0.0 | 0.00 | 0.00 | 0.00 | 64 | 1017.7 |
| 20260509023244 | 10 | 25 | 0.0 | 0.0 | 0.00 | 0.00 | 0.00 | 63 | 1017.7 |
| 20260509022307 | 10 | 25 | 0.0 | 0.0 | 0.00 | 0.00 | 0.00 | 63 | 1017.6 |
| 20260509021250 | 10 | 25 | 0.0 | 0.0 | 0.00 | 0.00 | 0.00 | 62 | 1017.6 |
| 20260509020245 | 10 | 25 | 0.0 | 0.0 | 0.00 | 0.00 | 0.00 | 62 | 1017.6 |
| 20260509013025 | 10 | 25 | 0.0 | 0.0 | 0.00 | 0.00 | 0.00 | 61 | 1017.6 |
| 20260509012008 | 11 | 25 | 0.0 | 0.0 | 0.00 | 0.00 | 0.00 | 61 | 1017.8 |
| 20260509005832 | 11 | 25 | 0.0 | 0.0 | 0.00 | 0.00 | 0.00 | 61 | 1017.8 |
| 20260509003659 | 11 | 25 | 0.0 | 0.0 | 0.00 | 0.00 | 0.00 | 60 | 1017.8 |
| 20260509002714 | 11 | 25 | 0.0 | 0.0 | 0.00 | 0.00 | 0.00 | 59 | 1017.8 |
| 20260509001654 | 11 | 25 | 0.0 | 0.0 | 0.00 | 0.00 | 0.00 | 59 | 1017.8 |
| 20260509000711 | 12 | 25 | 0.0 | 0.0 | 0.00 | 0.00 | 0.00 | 59 | 1017.8 |
| 20260508235730 | 12 | 25 | 0.0 | 0.0 | 0.00 | 0.00 | 0.00 | 59 | 1017.8 |
| 20260508234721 | 12 | 25 | 0.0 | 0.0 | 0.00 | 0.00 | 0.00 | 59 | 1017.8 |
| 20260508233724 | 12 | 25 | 0.0 | 0.0 | 0.00 | 0.00 | 0.00 | 59 | 1017.9 |
| 20260508232658 | 12 | 25 | 0.0 | 0.0 | 0.00 | 0.00 | 0.00 | 59 | 1017.8 |
| 20260508231703 | 13 | 25 | 0.0 | 0.0 | 0.00 | 0.00 | 0.00 | 59 | 1017.8 |
| 20260508230725 | 13 | 25 | 0.0 | 0.0 | 0.00 | 0.00 | 0.00 | 59 | 1017.9 |
| 20260508225659 | 13 | 25 | 0.0 | 0.0 | 0.00 | 0.00 | 0.00 | 58 | 1017.9 |
| 20260508224700 | 13 | 25 | 0.0 | 0.0 | 0.00 | 0.00 | 0.00 | 58 | 1018.0 |
| 20260508223642 | 13 | 25 | 0.0 | 0.0 | 0.00 | 0.00 | 0.00 | 58 | 1017.9 |
| 20260508222654 | 13 | 25 | 0.0 | 0.0 | 0.00 | 0.00 | 0.00 | 58 | 1017.8 |
| 20260508221658 | 13 | 25 | 0.0 | 0.0 | 0.00 | 0.00 | 0.00 | 58 | 1017.8 |
| 20260508220647 | 13 | 25 | 0.0 | 0.0 | 0.00 | 0.00 | 0.00 | 58 | 1017.9 |
| 20260508215623 | 13 | 25 | 0.0 | 0.0 | 0.00 | 0.00 | 0.00 | 57 | 1018.0 |
| 20260508213457 | 13 | 25 | 0.0 | 0.0 | 0.00 | 0.00 | 0.00 | 56 | 1017.8 |
| 20260508212519 | 14 | 25 | 0.0 | 0.0 | 0.00 | 0.00 | 0.00 | 55 | 1017.8 |
| 20260508211523 | 14 | 25 | 0.0 | 0.0 | 0.00 | 0.00 | 0.00 | 55 | 1017.7 |
| 20260508210546 | 14 | 25 | 0.0 | 0.0 | 0.00 | 0.00 | 0.00 | 55 | 1017.6 |
| 20260508205558 | 14 | 25 | 0.0 | 0.0 | 0.00 | 0.00 | 0.00 | 54 | 1017.6 |
| 20260508204559 | 15 | 25 | 0.0 | 0.0 | 0.00 | 0.00 | 0.00 | 53 | 1017.4 |
| 20260508203621 | 15 | 25 | 0.0 | 0.0 | 0.00 | 0.00 | 0.00 | 53 | 1017.5 |
| 20260508202630 | 15 | 24 | 0.0 | 0.0 | 0.00 | 0.00 | 0.00 | 52 | 1017.4 |
| 20260508201630 | 15 | 24 | 0.0 | 0.0 | 0.00 | 0.00 | 0.00 | 51 | 1017.3 |
| 20260508200613 | 15 | 23 | 0.0 | 0.0 | 0.00 | 0.00 | 0.00 | 51 | 1017.3 |
| 20260508195613 | 15 | 26 | 0.0 | 0.0 | 0.00 | 0.00 | 0.00 | 51 | 1017.1 |
| 20260508193443 | 16 | 30 | 0.0 | 3.2 | 0.00 | 0.00 | 0.00 | 49 | 1016.9 |
| 20260508192458 | 16 | 24 | 0.0 | 3.2 | 0.00 | 0.00 | 0.00 | 48 | 1016.8 |
| 20260508191513 | 16 | 24 | 0.0 | 1.6 | 0.00 | 0.00 | 0.00 | 48 | 1016.7 |
| 20260508190506 | 16 | 17 | 0.0 | 0.0 | 0.00 | 0.00 | 0.00 | 46 | 1016.6 |
| 20260508185509 | 17 | 17 | 0.0 | 1.6 | 0.00 | 0.00 | 0.00 | 46 | 1016.5 |
| 20260508184441 | 17 | 15 | 0.0 | 1.6 | 0.00 | 0.00 | 0.00 | 45 | 1016.4 |
| 20260508183430 | 17 | 15 | 0.0 | 4.8 | 0.00 | 0.00 | 0.00 | 44 | 1016.3 |
| 20260508182452 | 17 | 5 | 0.0 | 4.8 | 0.00 | 0.00 | 0.00 | 44 | 1016.2 |
| 20260508181427 | 17 | 20 | 0.0 | 3.2 | 0.00 | 0.00 | 0.00 | 44 | 1016.1 |
| 20260508180416 | 18 | 350 | 0.0 | 3.2 | 0.00 | 0.00 | 0.00 | 44 | 1016.0 |
| 20260508174302 | 18 | 33 | 1.6 | 6.4 | 0.00 | 0.00 | 0.00 | 42 | 1015.8 |
| 20260508173327 | 18 | 25 | 1.6 | 6.4 | 0.00 | 0.00 | 0.00 | 42 | 1015.6 |
| 20260508172343 | 18 | 28 | 1.6 | 9.7 | 0.00 | 0.00 | 0.00 | 43 | 1015.6 |
| 20260508171351 | 18 | 22 | 1.6 | 9.7 | 0.00 | 0.00 | 0.00 | 43 | 1015.6 |
| 20260508170402 | 18 | 17 | 1.6 | 9.7 | 0.00 | 0.00 | 0.00 | 42 | 1015.6 |
| 20260508165423 | 18 | 350 | 1.6 | 12.9 | 0.00 | 0.00 | 0.00 | 42 | 1015.5 |
| 20260508164416 | 18 | 46 | 1.6 | 12.9 | 0.00 | 0.00 | 0.00 | 42 | 1015.5 |
| 20260508163441 | 18 | 35 | 1.6 | 6.4 | 0.00 | 0.00 | 0.00 | 42 | 1015.5 |
| 20260508162427 | 18 | 15 | 1.6 | 6.4 | 0.00 | 0.00 | 0.00 | 41 | 1015.5 |
| 20260508161408 | 19 | 56 | 1.6 | 6.4 | 0.00 | 0.00 | 0.00 | 41 | 1015.5 |
| 20260508155234 | 19 | 38 | 4.8 | 11.3 | 0.00 | 0.00 | 0.00 | 42 | 1015.6 |
| 20260508154203 | 19 | 12 | 3.2 | 11.3 | 0.00 | 0.00 | 0.00 | 41 | 1015.6 |
| 20260508153138 | 19 | 47 | 1.6 | 6.4 | 0.00 | 0.00 | 0.00 | 40 | 1015.4 |
| 20260508151032 | 19 | 24 | 3.2 | 11.3 | 0.00 | 0.00 | 0.00 | 41 | 1015.6 |
| 20260508150014 | 20 | 70 | 1.6 | 11.3 | 0.00 | 0.00 | 0.00 | 40 | 1015.6 |
| 20260508145012 | 20 | 0 | 1.6 | 11.3 | 0.00 | 0.00 | 0.00 | 39 | 1015.8 |
| 20260508144007 | 19 | 24 | 1.6 | 9.7 | 0.00 | 0.00 | 0.00 | 40 | 1016.0 |
| 20260508142934 | 19 | 52 | 1.6 | 9.7 | 0.00 | 0.00 | 0.00 | 40 | 1016.0 |
| 20260508141908 | 19 | 69 | 1.6 | 6.4 | 0.00 | 0.00 | 0.00 | 41 | 1016.1 |
| 20260508140911 | 19 | 48 | 1.6 | 4.8 | 0.00 | 0.00 | 0.00 | 41 | 1016.2 |
| 20260508133714 | 20 | 25 | 1.6 | 8.0 | 0.00 | 0.00 | 0.00 | 40 | 1016.4 |
| 20260508132657 | 19 | 42 | 1.6 | 0.0 | 0.00 | 0.00 | 0.00 | 39 | 1016.5 |
| 20260508131700 | 19 | 92 | 1.6 | 9.7 | 0.00 | 0.00 | 0.00 | 42 | 1016.6 |
| 20260508125537 | 18 | 37 | 3.2 | 12.9 | 0.00 | 0.00 | 0.00 | 41 | 1016.7 |
| 20260508124600 | 19 | 40 | 1.6 | 12.9 | 0.00 | 0.00 | 0.00 | 42 | 1016.8 |
| 20260508123606 | 18 | 28 | 1.6 | 8.0 | 0.00 | 0.00 | 0.00 | 43 | 1016.7 |
| 20260508122622 | 18 | 45 | 1.6 | 11.3 | 0.00 | 0.00 | 0.00 | 44 | 1016.7 |
| 20260508121603 | 18 | 85 | 1.6 | 11.3 | 0.00 | 0.00 | 0.00 | 44 | 1016.8 |